Regional Weather Roundup
Issued by NWS San Diego, CA

Home | Current Version | Previous Version | Text Only | Print | Product List | Glossary On
Versions: 1 2 3 4 5 6 7 8 9 10 11 12 13 14 15 16 17 18 19 20 21 22 23 24 25 26 27 28 29 30 31 32 33 34 35 36 37 38 39 40 41 42 43 44 45 46 47 48 49 50
000
ASUS46 KSGX 290911
RWRSGX

SAN DIEGO HOURLY WEATHER ROUNDUP
NATIONAL WEATHER SERVICE SAN DIEGO CA
200 AM PDT MON MAY 29 2017

NOTE: "FAIR" INDICATES FEW OR NO CLOUDS BELOW 12,000 FEET WITH NO
SIGNIFICANT WEATHER AND/OR OBSTRUCTIONS TO VISIBILITY.

CAZ042-043-060-061-PZZ750-775-291000-

GREATER SAN DIEGO AREA

CITY           SKY/WX    TMP DP  RH WIND       PRES   REMARKS
SAN DIEGO AP   CLOUDY    62  57  83 NW5       29.96F
NATIONAL CITY    N/A     63  58  84 CALM      29.94F
CHULA VISTA      N/A     61  58  88 W1        29.87F
IMPERIAL BEACH CLOUDY    61  55  81 W7        29.96F
BROWN FIELD    CLOUDY    60  56  86 CALM      29.95F
MIRAMAR MCAS   CLOUDY    63  55  75 CALM      29.94F
MONTGOMERY FLD CLOUDY    60  54  80 E5        29.95F

$$

NORTH SAN DIEGO COUNTY

CITY           SKY/WX    TMP DP  RH WIND       PRES   REMARKS
CAMP PENDLETON CLOUDY    61  57  87 CALM      29.94F
OCEANSIDE AP   CLOUDY    62  58  86 CALM      29.94F
OCEANSIDE HBR    N/A     61  57  86 W1        29.97F
VISTA            N/A     59  54  83 CALM      29.92F
CARLSBAD       CLOUDY    61  57  87 S5        29.94F
DEL MAR          N/A     60  57  89 CALM      29.97F
LA JOLLA SCRIP   N/A     59  57  92 W1        29.94F
FALLBROOK        N/A     58  58 100 CALM      29.95F
ESCONDIDO        N/A     60  56  88 CALM      29.95F
SAN MARCOS       N/A     59  54  85 CALM      29.96F
POWAY            N/A     60  55  85 CALM      29.96F

$$

EAST SAN DIEGO COUNTY

CITY           SKY/WX    TMP DP  RH WIND       PRES   REMARKS
RAMONA         FOG       55  55 100 CALM      29.95F VSB 1/4
SANTEE LAKES     N/A     60  56  87 CALM      29.94F
LA MESA          N/A     59  56  87 CALM      29.88F
JAMUL            N/A     57  55  92 CALM      29.94F
DESCANSO N       N/A     52  34  50 NE6       29.85F
CAMPO            N/A     50  46  86 N5        29.94F

$$

ORANGE COUNTY AND THE LOS ANGELES BASIN

CITY           SKY/WX    TMP DP  RH WIND       PRES   REMARKS
JOHN WAYNE AP  CLOUDY    61  57  87 CALM      29.95F
LAKE FOREST FR   N/A     56  49  80 CALM      29.84S
HUNTINGTON BCH   N/A     59  57  92 W2        29.96F
LOS ALAMITOS   FAIR      57  55  91 S5        29.94F
FULLERTON      CLEAR     62  58  86 CALM      29.94F
LONG BEACH     PTCLDY    62  55  77 N3        29.94F
L.A. AP        MOCLDY    60  57  89 W6        29.95F
L.A. DOWNTOWN  CLOUDY    61  57  87 CALM      29.94F

$$

THE INLAND EMPIRE

CITY           SKY/WX    TMP DP  RH WIND       PRES   REMARKS
CORONA         CLEAR     58  54  86 W3        29.95F
CHINO          CLEAR     60  54  80 CALM      29.95F
ONTARIO        PTCLDY    59  53  80 VRB3      29.94F
SAN BERNARDINO FAIR      62  53  72 W5        29.95F
RIVERSIDE AP   CLEAR     60  54  80 CALM      29.94F
MORENO VALLEY    N/A     59  55  88 CALM      28.05F
MARCH ARB      CLEAR     54  52  92 CALM      29.95F
HORSETHIEF CYN   N/A     57  47  70 CALM      29.92F
PERRIS           N/A     59  54  83 SE1       29.95F
HEMET EAST       N/A     60  48  64 CALM      29.95F
FRENCH VALLEY  FAIR      57  52  82 SE3       29.96F
TEMECULA         N/A     57  55  95 S1        30.01F

$$

SAN BERNARDINO AND RIVERSIDE COUNTY MOUNTAINS

CITY           SKY/WX    TMP DP  RH WIND       PRES   REMARKS
BIG BEAR AP    CLEAR     39  23  52 CALM      30.20F
ANGELUS OAKS     N/A     56  28  34 CALM      29.80F
PINE COVE        N/A     60  29  30 NW3       29.86F

$$

SOUTHERN DESERT INCLUDING THE COACHELLA VALLEY

CITY           SKY/WX    TMP DP  RH WIND       PRES   REMARKS
PALM SPRINGS   CLEAR     78  48  34 E3        29.80F
PALM DESERT      N/A     78  51  38 CALM      28.82R
THERMAL        CLEAR     82  47  29 NW13      29.73F
BLYTHE         CLEAR     82  26  13 S5        29.76S
IMPERIAL AP    CLEAR     75  42  30 W6        29.74F
EL CENTRO NAS    N/A     75  32  20 W10       29.76F
YUMA AZ        CLEAR     81  38  21 NW6       29.76F
MEXICALI         N/A    N/A N/A N/A MISG        N/A

$$

UPPER DESERT

CITY           SKY/WX    TMP DP  RH WIND       PRES   REMARKS
VICTORVILLE AP CLEAR     64  28  25 S6        29.98F
HESPERIA         N/A     60  34  37 W3        29.98F
PALMDALE       CLEAR     66  41  40 SW6       29.97S
LANCASTER      CLEAR     67  46  47 CALM      29.95F
EDWARDS AFB    CLEAR     66  43  42 SW10      29.92F
DAGGETT        CLEAR     70  27  20 W9        29.91F
29 PALMS N     CLEAR     76  26  15 NW7       29.96S
NEEDLES        CLEAR     83  11   6 SW3       29.79S

$$

REGIONAL REPORTS

CITY           SKY/WX    TMP DP  RH WIND       PRES   REMARKS
SANTA BARBARA  PTCLDY    57  55  93 E5        29.92F
SANDBERG       PTCLDY    66  47  50 N15       30.09F
LAS VEGAS NV   CLEAR     76  17  11 S3        29.88F
PHOENIX AZ     CLEAR     79  29  16 SW5       29.78F
TIJUANA        CLOUDY    61  54  77 CALM      29.98F
ENSENADA NW      N/A     61  32  33 CALM      29.92F

$$

OFFSHORE ISLANDS

CITY           SKY/WX    TMP DP  RH WIND       PRES   REMARKS
CATALINA ARPT  FOG       52  51  97 CALM      29.96F VSB 1/4
SAN NICOLAS IS FOG       52 N/A N/A W20G25    29.95S VSB 3/4

$$

MARINE AND OFFSHORE BUOY REPORTS

STATION/POSITION SKY/WX   TEMP    WIND        PRES    VSBY  SWELL
                          AIR SEA DIR/SP/G                  HT/PER/DIR
                          (F)     (DEG/KT/KT) (MB)    (MI)  (FT/S/D)
TANNER BANKS               57 58  320/ 17/ 21 1014.7F         3/310/12
S CLEMENTE BASIN           59 63  290/  8/ 10 1014.5F         3/290/ 7
SAN NICOLAS IS.               59                N/A           2/210/13
SO. S. ROSA ISLA           54 56  300/ 23/ 29 1014.0F         2/290/10
W. S. BARBARA CH           53 54  320/ 23/ 29 1014.3F         2/310/10
M. S. BARBARA CH           57 57   40/  6/ 10 1013.9F         3/250/ 6
S. MONICA BASIN            58 62  350/  6/  8 1013.8F         3/270/ 5
S PEDRO CHANNEL               63                N/A           2/260/11
CMP PENDLETON NS              61                N/A           2/210/18
OCEANSIDE OFFSHR              63                N/A           2/220/18
TORREY PINES OTR              64                N/A           2/230/18
SAN DIEGO BAY                 67              1014.4F
POINT LOMA SOUTH              65                N/A           2/220/12

$$




USA.gov is the U.S. government's official web portal to all federal, state and local government web resources and services.